GFSNE_850_dewp_138.txt.gz
Dewpoint
-20 -20 -20 -19 -20 -21 -22 -22 -21 -20 -20 -15 -14 -11 -11 -14 -18 -17 -16 -14 -14 -13 -15 -16 -10 -9 -16 -22 -12 -10 -15 -16 -21 -17 -3 -11 -22 -17
-23 -20 -20 -19 -20 -20 -21 -21 -20 -19 -18 -17 -16 -17 -16 -16 -14 -15 -14 -13 -12 -12 -11 -12 -8 -16 -17 -9 -4 -5 -12 -23 -25 -26 -14 -21 -18 -21
-19 -23 -21 -20 -20 -20 -20 -20 -20 -18 -19 -21 -18 -16 -15 -14 -13 -14 -14 -11 -11 -10 -11 -10 -12 -13 -17 -5 -5 -8 -17 -12 -17 -25 -22 -25 -26 -28
-12 -19 -22 -21 -20 -19 -20 -21 -20 -18 -17 -19 -18 -17 -17 -15 -15 -15 -14 -10 -10 -9 -10 -11 -12 -14 -12 -5 -6 -11 -17 -20 -22 -24 -24 -24 -25 -27
-7 -12 -19 -21 -21 -19 -19 -19 -19 -18 -15 -14 -16 -15 -16 -16 -15 -14 -12 -11 -10 -10 -10 -11 -13 -13 -13 -13 -14 -15 -17 -18 -18 -16 -16 -12 -10 -22
-5 -7 -13 -20 -21 -19 -18 -18 -18 -18 -17 -15 -15 -16 -15 -14 -12 -10 -11 -10 -11 -11 -12 -12 -12 -11 -12 -14 -15 -16 -17 -18 -18 -18 -6 -5 -9 -14
-5 -6 -8 -17 -20 -20 -19 -19 -18 -18 -18 -16 -15 -14 -14 -12 -10 -9 -9 -9 -10 -11 -11 -11 -12 -14 -14 -15 -15 -15 -16 -16 -17 -10 -6 -11 -18 -13
-6 -6 -8 -11 -19 -20 -18 -19 -19 -19 -16 -12 -13 -12 -12 -12 -10 -9 -8 -9 -8 -9 -9 -11 -12 -14 -14 -15 -15 -15 -16 -16 -16 -14 -16 -17 -6 -6
-6 -6 -6 -3 -12 -19 -19 -18 -15 -14 -8 -7 -9 -12 -10 -9 -9 -9 -8 -7 -7 -7 -9 -10 -12 -14 -14 -14 -15 -17 -17 -17 -18 -18 -17 -10 -10 -13
-6 -6 -2 -1 -11 -9 -18 -18 -18 -17 -15 -11 -10 -10 -9 -9 -8 -7 -6 -7 -7 -8 -10 -9 -12 -13 -13 -15 -17 -18 -18 -17 -17 -17 -17 -17 -18 -18
-3 -3 -1 -4 -1 -13 -17 -18 -18 -19 -14 -12 -10 -8 -7 -6 -7 -7 -6 -7 -8 -11 -10 -10 -12 -12 -13 -16 -18 -18 -17 -17 -17 -17 -17 -17 -17 -16
-3 -4 -5 -2 -2 -16 -17 -17 -16 -18 -12 -10 -8 -8 -8 -8 -7 -7 -7 -7 -10 -9 -11 -11 -11 -10 -10 -13 -15 -14 -15 -17 -17 -17 -17 -17 -17 -16
-2 -2 -3 -2 -4 -15 -17 -14 -13 -9 -8 -7 -7 -7 -7 -7 -8 -7 -8 -8 -10 -10 -11 -10 -9 -10 -10 -10 -12 -14 -15 -16 -16 -16 -16 -16 -16 -16
-4 -4 -3 -3 -10 -15 -17 -17 -9 -6 -6 -6 -7 -6 -7 -8 -8 -8 -10 -10 -10 -10 -10 -10 -10 -11 -10 -10 -11 -13 -13 -13 -14 -15 -15 -15 -16 -16
-4 -5 -4 -4 -10 -14 -16 -14 -7 -6 -6 -7 -7 -8 -8 -9 -9 -10 -10 -10 -10 -10 -11 -11 -11 -11 -11 -11 -12 -12 -12 -13 -13 -14 -14 -14 -15 -15
-6 -6 -4 -6 -10 -14 -13 -12 -8 -7 -7 -7 -8 -9 -9 -9 -10 -10 -10 -10 -10 -11 -12 -11 -11 -11 -11 -11 -11 -12 -12 -11 -13 -13 -13 -14 -14 -15
-7 -7 -7 -7 -8 -8 -11 -12 -8 -7 -8 -8 -9 -9 -9 -9 -9 -9 -10 -10 -11 -11 -11 -11 -11 -11 -11 -10 -11 -12 -12 -12 -13 -13 -13 -13 -14 -14
-8 -7 -6 -6 -6 -9 -14 -10 -6 -7 -9 -9 -9 -9 -9 -9 -10 -10 -10 -11 -11 -10 -11 -11 -11 -11 -11 -12 -12 -12 -12 -12 -12 -12 -12 -12 -12 -13
-9 -8 -7 -6 -7 -8 -8 -7 -7 -8 -11 -9 -9 -10 -10 -10 -11 -11 -11 -11 -11 -11 -11 -11 -11 -11 -10 -11 -11 -11 -11 -11 -12 -11 -11 -11 -11 -12
-7 -7 -6 -6 -7 -7 -8 -7 -7 -10 -11 -10 -10 -11 -11 -11 -11 -11 -11 -11 -11 -11 -11 -11 -11 -11 -10 -10 -10 -11 -12 -12 -11 -10 -11 -12 -12 -12
-5 -5 -6 -6 -7 -7 -8 -8 -8 -12 -11 -10 -12 -11 -11 -11 -11 -11 -11 -11 -11 -11 -11 -11 -11 -10 -10 -10 -11 -11 -11 -11 -11 -11 -11 -11 -11 -12
-4 -5 -6 -6 -7 -7 -8 -8 -9 -13 -12 -12 -12 -11 -11 -11 -11 -11 -11 -11 -11 -10 -10 -10 -11 -10 -10 -10 -10 -10 -11 -11 -12 -11 -11 -11 -11 -11
-4 -5 -6 -6 -7 -7 -8 -8 -13 -13 -12 -12 -12 -12 -12 -11 -11 -11 -11 -11 -10 -10 -10 -10 -10 -10 -10 -10 -10 -10 -10 -11 -11 -12 -11 -11 -11 -11

GFSNE_850_dewp_144.txt.gz
Dewpoint
-8 -10 -13 -18 -20 -19 -18 -18 -17 -17 -19 -20 -20 -19 -18 -18 -19 -19 -19 -19 -20 -19 -18 -16 -16 -15 -15 -16 -18 -9 -4 -6 -6 -4 -4 -2 -3 -5
-7 -7 -8 -11 -13 -17 -19 -19 -18 -16 -17 -18 -19 -19 -19 -19 -19 -19 -19 -19 -19 -19 -18 -15 -13 -13 -14 -14 -15 -4 -4 -6 -9 -4 -4 -3 -2 -3
-7 -6 -6 -7 -8 -11 -15 -18 -19 -17 -16 -18 -19 -19 -19 -19 -19 -19 -19 -19 -19 -18 -17 -16 -14 -13 -12 -13 -13 -4 -4 -5 -8 -12 -16 -12 -4 -3
-9 -8 -7 -6 -6 -7 -10 -13 -17 -17 -16 -17 -18 -19 -18 -18 -18 -19 -18 -18 -18 -16 -14 -12 -12 -12 -12 -12 -12 -9 -9 -9 -13 -15 -18 -20 -12 -5
-5 -8 -8 -7 -7 -6 -7 -9 -12 -17 -17 -15 -17 -18 -18 -18 -18 -18 -18 -17 -16 -16 -14 -12 -11 -12 -12 -13 -6 -7 -14 -14 -15 -15 -16 -17 -19 -9
-0 -2 -5 -8 -8 -7 -7 -7 -9 -14 -16 -16 -15 -16 -16 -17 -18 -17 -17 -15 -16 -14 -14 -13 -12 -11 -12 -12 -12 -13 -14 -15 -15 -15 -13 -16 -16 -6
1 -0 -2 -4 -7 -7 -7 -7 -8 -11 -14 -14 -14 -15 -16 -17 -17 -14 -14 -14 -15 -14 -14 -11 -10 -11 -10 -11 -12 -13 -14 -15 -15 -15 -16 -14 -7 -6
1 1 0 -2 -5 -7 -7 -7 -8 -9 -11 -2 -6 -13 -16 -16 -14 -11 -11 -11 -11 -13 -12 -11 -8 -10 -10 -11 -12 -13 -14 -14 -15 -15 -15 -15 -13 -14
1 1 1 -0 -2 -4 -6 -7 -8 -9 -9 -2 -3 -9 -13 -15 -13 -10 -11 -10 -10 -10 -8 -9 -9 -10 -11 -12 -13 -13 -13 -14 -15 -17 -18 -18 -16 -17
-1 0 1 0 -1 -2 -5 -6 -7 -8 -4 -2 -4 -5 -13 -12 -14 -12 -10 -9 -8 -8 -8 -7 -9 -9 -10 -12 -13 -13 -13 -14 -16 -18 -18 -18 -20 -21
-1 -0 1 0 0 -2 -4 -5 -3 -6 -4 -3 -3 -5 -13 -13 -13 -10 -9 -7 -6 -7 -7 -7 -9 -9 -11 -12 -12 -13 -14 -16 -17 -16 -16 -17 -18 -19
-3 -2 -1 -0 -0 -1 -3 -4 -5 -3 -3 -3 -3 -7 -14 -14 -11 -6 -6 -6 -7 -7 -8 -8 -9 -8 -9 -11 -13 -15 -14 -13 -13 -14 -16 -18 -18 -18
-4 -4 -4 -1 -1 -2 -4 -3 -3 -3 -3 -4 -4 -7 -9 -11 -9 -7 -6 -7 -7 -7 -7 -7 -8 -8 -9 -10 -10 -11 -12 -13 -13 -14 -16 -17 -18 -17
-4 -4 -4 -3 -2 -3 -4 -4 -4 -4 -4 -5 -7 -10 -10 -11 -10 -6 -6 -7 -8 -8 -8 -8 -9 -9 -9 -10 -10 -11 -11 -12 -13 -14 -15 -16 -17 -17
-4 -4 -4 -4 -3 -3 -4 -5 -5 -4 -4 -7 -7 -9 -9 -10 -8 -6 -7 -7 -8 -9 -9 -9 -10 -9 -10 -10 -10 -11 -11 -12 -12 -13 -14 -13 -14 -14
-5 -4 -5 -4 -4 -4 -4 -5 -6 -5 -6 -7 -8 -9 -7 -6 -6 -7 -7 -8 -8 -9 -9 -9 -9 -10 -10 -10 -11 -11 -11 -11 -12 -12 -12 -12 -13 -13
-5 -5 -5 -5 -4 -5 -4 -5 -5 -5 -6 -6 -7 -7 -7 -7 -7 -7 -8 -8 -8 -9 -9 -10 -10 -11 -11 -10 -11 -11 -11 -11 -11 -12 -11 -11 -12 -12
-4 -4 -4 -5 -4 -4 -5 -5 -5 -6 -6 -6 -7 -7 -8 -9 -7 -8 -8 -9 -9 -10 -11 -12 -11 -11 -11 -11 -11 -11 -11 -11 -12 -11 -11 -11 -12 -12
-4 -4 -4 -4 -5 -6 -5 -4 -5 -6 -6 -6 -7 -10 -10 -7 -8 -9 -9 -9 -9 -10 -12 -11 -11 -11 -11 -11 -11 -11 -11 -11 -11 -11 -11 -11 -11 -12
-5 -4 -4 -4 -5 -5 -5 -5 -5 -5 -6 -6 -7 -8 -7 -8 -8 -9 -9 -9 -10 -11 -12 -11 -11 -11 -11 -11 -11 -11 -11 -11 -11 -11 -10 -11 -12 -12
-5 -5 -5 -5 -5 -5 -5 -5 -5 -6 -6 -7 -7 -8 -8 -8 -9 -9 -10 -11 -11 -11 -11 -12 -11 -11 -11 -11 -11 -11 -11 -11 -11 -10 -10 -10 -10 -10
-6 -5 -5 -5 -5 -5 -5 -5 -6 -6 -6 -7 -7 -8 -8 -9 -9 -10 -11 -11 -11 -11 -11 -11 -11 -11 -10 -10 -10 -11 -11 -11 -11 -11 -11 -11 -10 -10
-6 -5 -5 -5 -5 -5 -6 -6 -6 -7 -7 -7 -7 -8 -8 -9 -11 -11 -11 -12 -12 -11 -11 -11 -11 -11 -11 -11 -11 -11 -11 -11 -11 -12 -12 -12 -11 -11

GFSNE_850_dewp_147.txt.gz
Dewpoint
-7 -7 -7 -9 -11 -14 -16 -18 -18 -15 -17 -17 -19 -19 -19 -19 -20 -20 -21 -21 -21 -21 -22 -21 -21 -21 -19 -16 -12 -13 -3 -3 -4 -3 -2 -2 -1 -2
-9 -8 -7 -7 -7 -8 -10 -13 -16 -17 -15 -15 -16 -18 -18 -18 -18 -19 -20 -20 -20 -20 -21 -21 -20 -20 -19 -17 -14 -9 -4 -3 -3 -3 -2 -2 -2 -1
-6 -9 -9 -8 -7 -7 -7 -9 -11 -14 -16 -15 -14 -15 -18 -18 -17 -18 -19 -20 -20 -19 -20 -20 -19 -18 -17 -16 -15 -13 -4 -3 -4 -4 -3 -4 -3 -2
0 -2 -4 -8 -8 -8 -7 -7 -7 -9 -14 -14 -12 -12 -15 -17 -17 -18 -19 -19 -19 -19 -18 -19 -18 -17 -15 -14 -14 -13 -5 -5 -5 -6 -6 -6 -5 -3
1 1 0 -2 -4 -7 -8 -8 -7 -8 -10 -13 -13 -11 -12 -15 -16 -17 -19 -19 -19 -18 -17 -18 -17 -17 -16 -14 -13 -10 -6 -7 -13 -14 -14 -15 -6 -6
1 1 1 0 -1 -2 -6 -8 -8 -8 -8 -11 -12 -12 -11 -9 -12 -15 -18 -19 -18 -17 -17 -16 -16 -16 -14 -13 -12 -12 -12 -12 -13 -14 -15 -11 -7 -9
-1 0 1 1 1 -0 -3 -5 -7 -8 -8 -9 -10 -12 -11 -6 -3 -12 -16 -15 -16 -16 -16 -14 -13 -13 -12 -11 -10 -11 -12 -13 -14 -14 -14 -6 -6 -5
-4 -4 -2 1 1 1 -1 -3 -5 -7 -8 -8 -8 -10 -10 -7 -2 -5 -13 -11 -11 -15 -14 -13 -11 -12 -13 -10 -10 -11 -12 -13 -14 -14 -7 -7 -6 -6
-4 -4 -3 -2 0 1 1 -1 -4 -5 -6 -7 -8 -8 -10 -5 -3 -6 -11 -12 -11 -11 -11 -12 -10 -10 -12 -11 -10 -11 -12 -13 -13 -13 -12 -12 -13 -7
-4 -4 -4 -3 -1 -0 1 -0 -3 -4 -5 -4 -6 -7 -6 -3 -3 -4 -9 -9 -10 -12 -11 -8 -7 -8 -11 -12 -11 -12 -12 -13 -13 -13 -14 -13 -7 -8
-6 -4 -4 -3 -3 -1 0 0 -1 -3 -4 -6 -8 -5 -6 -3 -3 -5 -8 -9 -10 -10 -9 -6 -7 -9 -10 -11 -11 -11 -12 -12 -13 -14 -13 -11 -10 -11
-12 -11 -4 -4 -4 -2 -1 -1 -1 -1 -2 -4 -5 -5 -4 -4 -4 -8 -12 -10 -9 -7 -6 -7 -7 -8 -9 -10 -11 -13 -13 -13 -12 -14 -15 -14 -15 -16
-8 -8 -9 -7 -4 -3 -2 -1 -1 -2 -3 -4 -3 -3 -4 -4 -5 -9 -7 -8 -6 -6 -6 -7 -7 -8 -8 -8 -9 -10 -11 -11 -11 -12 -13 -13 -14 -16
-10 -6 -6 -7 -6 -4 -3 -2 -2 -3 -5 -4 -3 -4 -4 -4 -5 -6 -7 -8 -7 -7 -7 -7 -7 -8 -8 -8 -9 -9 -11 -11 -11 -12 -13 -13 -14 -15
-11 -9 -4 -4 -5 -4 -4 -3 -3 -4 -4 -4 -4 -4 -4 -5 -8 -8 -7 -6 -6 -6 -6 -7 -8 -8 -8 -9 -9 -10 -10 -10 -11 -12 -12 -13 -13 -13
-10 -9 -8 -4 -4 -4 -4 -4 -3 -4 -4 -4 -4 -4 -5 -7 -8 -7 -7 -7 -6 -7 -8 -8 -8 -9 -9 -9 -10 -10 -11 -10 -11 -12 -12 -12 -12 -12
-5 -5 -6 -6 -4 -4 -5 -5 -4 -4 -4 -5 -5 -5 -6 -6 -7 -7 -7 -7 -7 -8 -8 -8 -9 -9 -9 -9 -10 -11 -11 -11 -11 -11 -11 -11 -12 -12
-5 -5 -4 -4 -5 -4 -4 -5 -5 -4 -4 -5 -5 -5 -6 -7 -7 -7 -7 -8 -8 -8 -8 -9 -9 -9 -10 -11 -11 -11 -11 -11 -11 -11 -11 -11 -11 -12
-7 -7 -6 -6 -5 -5 -5 -5 -5 -5 -5 -5 -5 -6 -6 -7 -7 -7 -8 -8 -8 -8 -9 -9 -10 -10 -11 -11 -11 -11 -11 -11 -11 -11 -11 -12 -12 -12
-7 -7 -7 -7 -6 -5 -5 -5 -5 -5 -5 -6 -6 -6 -7 -7 -7 -8 -8 -8 -8 -9 -9 -10 -10 -12 -11 -11 -11 -11 -11 -11 -11 -11 -11 -11 -11 -11
-7 -7 -7 -6 -6 -6 -6 -6 -6 -6 -6 -6 -6 -6 -7 -7 -8 -8 -8 -8 -9 -9 -10 -11 -12 -11 -11 -11 -12 -12 -12 -11 -11 -11 -11 -11 -11 -11
-7 -7 -7 -7 -6 -6 -6 -6 -6 -6 -6 -6 -6 -7 -7 -7 -8 -8 -8 -9 -9 -10 -11 -11 -12 -11 -11 -11 -12 -11 -11 -12 -12 -12 -11 -11 -10 -11
-7 -7 -7 -7 -7 -7 -6 -7 -7 -7 -6 -6 -7 -7 -7 -7 -8 -8 -9 -10 -11 -11 -12 -13 -11 -11 -11 -11 -11 -11 -12 -12 -12 -12 -12 -12 -12 -11

GFSNE_850_dewp_150.txt.gz
Dewpoint
-11 -10 -9 -8 -8 -8 -9 -12 -14 -10 -10 -10 -11 -12 -16 -18 -18 -19 -19 -19 -20 -20 -20 -19 -19 -20 -21 -21 -20 -19 -18 -13 -2 -2 -3 -2 -1 -1
-3 -5 -9 -9 -9 -8 -8 -8 -10 -12 -9 -9 -9 -10 -12 -15 -16 -17 -18 -19 -19 -20 -20 -20 -19 -19 -19 -20 -19 -18 -16 -12 -3 -2 -2 -2 -2 -2
-0 -0 -1 -2 -5 -8 -8 -8 -8 -9 -9 -8 -8 -8 -9 -11 -13 -15 -16 -18 -19 -20 -20 -20 -19 -18 -18 -18 -18 -18 -16 -11 -3 -3 -3 -3 -3 -3
-1 1 0 0 -0 -1 -4 -7 -8 -8 -9 -8 -8 -9 -7 -8 -11 -13 -15 -16 -17 -19 -20 -20 -19 -18 -17 -18 -17 -17 -15 -9 -4 -4 -4 -5 -3 -4
-4 -2 -1 0 1 0 -0 -2 -3 -6 -8 -9 -9 -9 -8 -8 -8 -9 -11 -11 -12 -16 -19 -20 -19 -17 -17 -16 -16 -17 -15 -8 -5 -6 -13 -12 -5 -5
-6 -6 -5 -2 -0 0 1 -0 -1 -3 -6 -8 -8 -8 -8 -8 -9 -8 -9 -7 -5 -9 -16 -19 -18 -17 -16 -14 -15 -16 -14 -13 -12 -12 -12 -14 -13 -6
-5 -5 -4 -4 -3 -1 1 1 -1 -2 -3 -5 -7 -8 -8 -8 -8 -8 -9 -6 -4 -5 -12 -16 -17 -16 -14 -12 -13 -14 -13 -12 -11 -12 -13 -14 -10 -5
-6 -6 -5 -5 -4 -3 -2 -0 1 -0 -2 -3 -4 -7 -7 -7 -8 -8 -9 -7 -4 -5 -7 -13 -12 -14 -13 -11 -11 -13 -12 -11 -11 -12 -12 -12 -6 -5
-18 -14 -9 -6 -4 -4 -4 -2 -0 1 0 -1 -4 -4 -5 -5 -6 -8 -8 -8 -4 -5 -7 -7 -8 -7 -9 -9 -9 -13 -12 -11 -11 -12 -11 -7 -6 -6
-15 -14 -13 -12 -11 -6 -4 -3 -1 -0 0 0 -1 -2 -3 -5 -7 -8 -7 -4 -4 -5 -5 -6 -7 -7 -6 -6 -8 -11 -12 -12 -12 -12 -11 -7 -6 -7
-15 -14 -14 -13 -11 -10 -7 -4 -3 -2 -1 0 0 -1 -4 -6 -7 -6 -4 -4 -5 -5 -5 -6 -7 -6 -6 -6 -8 -10 -12 -12 -11 -12 -11 -9 -7 -6
-11 -10 -10 -12 -13 -7 -5 -3 -3 -3 -2 -1 -1 -2 -4 -5 -5 -6 -5 -5 -5 -5 -6 -7 -6 -6 -6 -7 -9 -11 -12 -11 -12 -12 -9 -8 -8 -11
-9 -10 -10 -10 -10 -12 -8 -4 -3 -3 -3 -2 -2 -2 -3 -4 -5 -5 -4 -5 -5 -6 -6 -6 -6 -6 -7 -7 -7 -8 -9 -9 -9 -10 -11 -11 -12 -12
-11 -9 -7 -9 -9 -8 -10 -9 -5 -4 -3 -3 -3 -3 -3 -4 -4 -3 -4 -5 -5 -6 -6 -6 -6 -6 -7 -7 -8 -8 -8 -8 -9 -10 -10 -10 -11 -12
-8 -7 -7 -8 -8 -6 -6 -6 -4 -3 -4 -3 -4 -4 -3 -4 -4 -4 -4 -5 -6 -6 -6 -6 -6 -6 -7 -7 -8 -8 -8 -9 -9 -9 -9 -9 -11 -12
-6 -7 -8 -6 -7 -5 -4 -4 -4 -4 -4 -4 -3 -4 -4 -4 -4 -5 -5 -6 -7 -7 -6 -6 -6 -7 -7 -8 -8 -8 -9 -9 -9 -9 -10 -10 -11 -11
-6 -6 -6 -6 -6 -7 -6 -5 -5 -5 -5 -5 -4 -4 -4 -4 -5 -5 -6 -6 -7 -6 -7 -7 -7 -7 -8 -8 -9 -9 -9 -9 -10 -10 -10 -10 -11 -11
-6 -6 -6 -6 -7 -7 -7 -7 -6 -5 -5 -5 -5 -5 -4 -5 -5 -6 -6 -7 -6 -7 -7 -7 -8 -8 -8 -9 -9 -9 -10 -12 -11 -10 -10 -10 -10 -11
-6 -6 -6 -6 -7 -7 -6 -6 -6 -6 -6 -6 -5 -5 -5 -5 -5 -6 -7 -7 -7 -7 -7 -8 -8 -8 -9 -9 -9 -10 -12 -11 -11 -10 -10 -10 -10 -12
-7 -7 -7 -7 -7 -7 -7 -7 -6 -6 -6 -6 -6 -6 -6 -6 -6 -6 -7 -7 -7 -8 -8 -8 -9 -9 -9 -10 -10 -10 -10 -11 -11 -10 -10 -10 -10 -11
-7 -7 -7 -7 -7 -7 -7 -7 -7 -6 -7 -7 -7 -7 -7 -7 -7 -7 -7 -8 -8 -8 -8 -9 -9 -9 -10 -11 -11 -12 -12 -12 -12 -12 -11 -10 -10 -10
-8 -8 -7 -7 -8 -7 -7 -7 -7 -7 -7 -7 -7 -7 -7 -7 -7 -7 -7 -8 -8 -8 -9 -9 -10 -10 -11 -11 -11 -12 -12 -12 -11 -11 -12 -12 -11 -10
-8 -8 -8 -8 -8 -8 -7 -8 -7 -7 -7 -7 -7 -7 -7 -7 -7 -7 -8 -8 -8 -9 -9 -10 -11 -11 -12 -11 -11 -11 -11 -11 -12 -11 -12 -12 -12 -12

GFSNE_850_dewp_156.txt.gz
Dewpoint
-2 -2 -2 -2 -1 -1 -2 -4 -7 -7 -7 -4 -6 -6 -7 -7 -7 -7 -6 -6 -7 -8 -9 -11 -13 -15 -17 -18 -19 -18 -16 -16 -15 -14 -14 -15 -11 -9
-5 -5 -5 -4 -4 -2 -1 -1 -1 -4 -5 -3 -2 -3 -5 -6 -7 -7 -7 -7 -6 -6 -6 -7 -9 -11 -13 -16 -18 -19 -18 -16 -15 -13 -13 -13 -11 -9
-7 -7 -7 -5 -6 -5 -4 -3 -2 -2 -2 -2 -2 -1 -1 -3 -4 -4 -5 -6 -7 -7 -6 -6 -6 -7 -9 -11 -14 -17 -19 -17 -15 -14 -13 -13 -8 -3
-9 -6 -7 -5 -4 -4 -4 -3 -3 -3 -2 -2 -3 -2 -2 -1 -1 -3 -2 -3 -3 -4 -7 -7 -6 -6 -6 -5 -7 -12 -17 -19 -16 -15 -13 -13 -6 -8
-24 -22 -20 -14 -11 -7 -4 -3 -2 -2 -2 -2 -2 -2 -2 -2 -2 -2 -2 -2 -2 -2 -3 -6 -7 -7 -7 -6 -3 -5 -13 -18 -17 -15 -13 -13 -10 -11
-28 -27 -26 -23 -20 -17 -13 -9 -4 -2 -2 -2 -2 -2 -2 -2 -2 -2 -2 -2 -2 -1 -2 -3 -6 -7 -7 -7 -4 -3 -9 -17 -18 -16 -13 -12 -13 -14
-30 -28 -25 -23 -19 -15 -9 -6 -5 -4 -4 -3 -2 -2 -2 -2 -3 -3 -3 -3 -2 -2 -2 -3 -3 -6 -7 -7 -6 -4 -6 -15 -18 -15 -12 -12 -13 -14
-25 -24 -23 -21 -20 -18 -15 -12 -8 -4 -3 -2 -3 -3 -3 -2 -3 -3 -3 -3 -3 -3 -3 -3 -3 -5 -5 -6 -4 -4 -8 -15 -16 -13 -11 -11 -11 -13
-24 -21 -19 -19 -17 -15 -14 -12 -10 -8 -7 -6 -3 -3 -3 -3 -3 -3 -3 -3 -3 -3 -4 -4 -4 -5 -4 -5 -5 -5 -8 -11 -13 -12 -6 -7 -8 -7
-26 -25 -23 -19 -16 -13 -11 -11 -9 -8 -10 -10 -7 -5 -5 -4 -3 -3 -3 -3 -3 -3 -4 -4 -4 -4 -4 -5 -5 -5 -6 -8 -9 -9 -6 -6 -6 -5
-26 -26 -24 -20 -18 -12 -5 -4 -4 -5 -4 -4 -4 -4 -4 -4 -4 -4 -3 -3 -3 -3 -4 -4 -4 -4 -4 -5 -4 -5 -5 -7 -6 -6 -5 -5 -5 -5
-23 -24 -23 -22 -20 -11 -5 -5 -5 -5 -5 -5 -5 -5 -4 -4 -4 -4 -4 -4 -3 -4 -4 -4 -4 -4 -4 -4 -5 -5 -6 -6 -6 -6 -6 -6 -5 -6
-17 -18 -17 -14 -10 -7 -5 -5 -5 -5 -5 -5 -6 -7 -7 -6 -5 -5 -5 -4 -4 -4 -4 -4 -4 -4 -5 -4 -6 -6 -6 -7 -8 -10 -11 -12 -9 -7
-8 -8 -8 -7 -6 -6 -5 -6 -5 -5 -6 -7 -8 -8 -8 -7 -7 -6 -6 -5 -5 -5 -5 -4 -4 -4 -5 -5 -6 -6 -7 -7 -8 -8 -9 -9 -9 -9
-6 -6 -6 -6 -6 -6 -6 -6 -6 -6 -7 -7 -7 -7 -7 -6 -6 -6 -6 -6 -5 -5 -4 -5 -5 -5 -5 -5 -5 -6 -7 -7 -8 -8 -8 -9 -10 -10
-7 -7 -7 -7 -6 -6 -6 -7 -7 -7 -7 -7 -7 -8 -7 -6 -6 -7 -6 -6 -5 -5 -5 -5 -5 -5 -5 -5 -6 -7 -7 -7 -8 -8 -8 -9 -9 -10
-7 -8 -8 -7 -7 -8 -8 -7 -7 -8 -8 -7 -7 -7 -8 -8 -7 -7 -6 -6 -6 -5 -5 -5 -5 -5 -6 -6 -6 -6 -7 -6 -7 -7 -8 -9 -9 -10
-7 -7 -9 -9 -9 -8 -8 -9 -8 -8 -8 -7 -7 -7 -7 -8 -7 -7 -7 -6 -6 -6 -5 -6 -6 -6 -6 -6 -6 -6 -7 -7 -7 -8 -8 -8 -9 -10
-8 -9 -8 -8 -9 -9 -9 -9 -8 -8 -8 -7 -7 -7 -8 -7 -7 -7 -7 -6 -6 -6 -6 -6 -6 -7 -7 -7 -8 -8 -7 -7 -8 -8 -9 -9 -10 -11
-9 -9 -9 -9 -8 -8 -8 -8 -8 -8 -8 -7 -8 -7 -8 -7 -7 -7 -7 -7 -6 -6 -6 -6 -6 -7 -7 -7 -7 -8 -8 -8 -8 -9 -9 -11 -12 -11
-9 -9 -9 -8 -8 -8 -8 -8 -8 -8 -7 -8 -8 -7 -8 -7 -7 -7 -7 -7 -6 -6 -6 -7 -7 -7 -7 -7 -8 -8 -8 -9 -9 -9 -11 -11 -11 -11
-10 -9 -9 -8 -9 -8 -8 -9 -8 -8 -9 -8 -8 -7 -8 -8 -7 -7 -7 -7 -7 -7 -7 -7 -7 -7 -8 -8 -8 -9 -9 -9 -10 -11 -12 -11 -11 -11
-9 -9 -9 -9 -10 -9 -9 -8 -8 -8 -9 -8 -7 -8 -8 -7 -7 -7 -7 -7 -8 -7 -7 -7 -8 -8 -8 -9 -9 -10 -10 -11 -12 -12 -12 -11 -10 -10